• In Uzbekistan
  • List of Countries
  • For 7 days
  • Water Temperature
  • Satellite Maps
  • Weather Map
  • Weather Widgets
  • user-avatar
    Login

    Hourly Weather Jagodniki

    Today, 21 September, Friday

    Time Temperature Precipitation Wind Pressure Humidity
    00:00 +19°C° 0 mm 2 mps 749 mmHg 67%
    01:00 +19°C° 0 mm 2 mps 749 mmHg 68%
    02:00 +18°C° 0 mm 2 mps 749 mmHg 69%
    03:00 +18°C° 0 mm 2 mps 749 mmHg 70%
    04:00 +17°C° 0 mm 2 mps 749 mmHg 71%
    05:00 +17°C° 0 mm 2 mps 749 mmHg 72%
    06:00 +17°C° 0 mm 2 mps 749 mmHg 71%
    07:00 +18°C° 0 mm 2 mps 749 mmHg 69%
    08:00 +18°C° 0 mm 2 mps 749 mmHg 66%
    09:00 +20°C° 0 mm 3 mps 749 mmHg 61%
    10:00 +22°C° 0 mm 3 mps 749 mmHg 56%
    11:00 +25°C° 0 mm 3 mps 749 mmHg 50%
    12:00 +26°C° 0 mm 4 mps 748 mmHg 47%
    13:00 +27°C° 0 mm 4 mps 748 mmHg 45%
    14:00 +27°C° 0 mm 4 mps 747 mmHg 42%
    15:00 +27°C° 0 mm 4 mps 747 mmHg 44%
    16:00 +26°C° 0 mm 4 mps 746 mmHg 46%
    17:00 +26°C° 0 mm 4 mps 746 mmHg 49%
    18:00 +23°C° 0 mm 4 mps 745 mmHg 52%
    19:00 +22°C° 0 mm 4 mps 745 mmHg 56%
    20:00 +20°C° 0 mm 4 mps 745 mmHg 60%
    21:00 +20°C° 0 mm 5 mps 744 mmHg 60%
    22:00 +20°C° 0 mm 5 mps 744 mmHg 61%
    23:00 +20°C° 0 mm 6 mps 744 mmHg 62%

    Tomorrow, 22 September, Saturday

    Time Temperature Precipitation Wind Pressure Humidity
    00:00 +20°C° 0 mm 5 mps 743 mmHg 62%
    01:00 +20°C° 0 mm 5 mps 743 mmHg 62%
    02:00 +19°C° 0 mm 5 mps 743 mmHg 62%
    03:00 +19°C° 0.2 mm 5 mps 743 mmHg 66%
    04:00 +17°C° 0.2 mm 6 mps 743 mmHg 70%
    05:00 +17°C° 0.2 mm 6 mps 743 mmHg 74%
    06:00 +16°C° 0.5 mm 6 mps 744 mmHg 78%
    07:00 +15°C° 0.5 mm 5 mps 745 mmHg 82%
    08:00 +14°C° 0.5 mm 5 mps 746 mmHg 86%
    09:00 +14°C° 0.2 mm 5 mps 746 mmHg 80%
    10:00 +13°C° 0.2 mm 5 mps 747 mmHg 74%
    11:00 +13°C° 0.2 mm 4 mps 747 mmHg 69%
    12:00 +14°C° 0 mm 4 mps 748 mmHg 65%
    13:00 +14°C° 0 mm 4 mps 748 mmHg 62%
    14:00 +14°C° 0 mm 5 mps 748 mmHg 58%
    15:00 +14°C° 0.1 mm 4 mps 748 mmHg 58%
    16:00 +14°C° 0.1 mm 4 mps 747 mmHg 58%
    17:00 +14°C° 0.1 mm 4 mps 747 mmHg 59%
    18:00 +13°C° 0.2 mm 4 mps 747 mmHg 64%
    19:00 +12°C° 0.2 mm 3 mps 747 mmHg 69%
    20:00 +11°C° 0.2 mm 3 mps 747 mmHg 74%
    21:00 +11°C° 0 mm 3 mps 747 mmHg 76%
    22:00 +10°C° 0 mm 3 mps 747 mmHg 78%
    23:00 +9°C° 0 mm 3 mps 747 mmHg 81%

    Day after tomorrow, 23 September, Sunday

    Time Temperature Precipitation Wind Pressure Humidity
    00:00 +9°C° 0 mm 3 mps 747 mmHg 81%
    01:00 +9°C° 0 mm 3 mps 747 mmHg 81%
    02:00 +8°C° 0 mm 4 mps 747 mmHg 82%
    03:00 +7°C° 0 mm 4 mps 747 mmHg 83%
    04:00 +7°C° 0 mm 4 mps 747 mmHg 84%
    05:00 +7°C° 0 mm 4 mps 747 mmHg 85%
    06:00 +8°C° 0 mm 4 mps 747 mmHg 82%
    07:00 +8°C° 0 mm 5 mps 747 mmHg 79%
    08:00 +9°C° 0 mm 5 mps 747 mmHg 76%
    09:00 +10°C° 0 mm 6 mps 747 mmHg 68%
    10:00 +12°C° 0 mm 7 mps 747 mmHg 60%
    11:00 +14°C° 0 mm 7 mps 747 mmHg 52%
    12:00 +15°C° 0 mm 7 mps 747 mmHg 50%
    13:00 +15°C° 0 mm 7 mps 747 mmHg 48%
    14:00 +16°C° 0 mm 7 mps 747 mmHg 45%
    15:00 +16°C° 0 mm 7 mps 747 mmHg 47%
    16:00 +15°C° 0 mm 6 mps 746 mmHg 49%
    17:00 +15°C° 0 mm 5 mps 746 mmHg 50%
    18:00 +14°C° 0 mm 4 mps 746 mmHg 54%
    19:00 +12°C° 0 mm 3 mps 746 mmHg 58%
    20:00 +11°C° 0 mm 3 mps 746 mmHg 62%
    21:00 +10°C° 0 mm 2 mps 746 mmHg 63%
    22:00 +10°C° 0 mm 2 mps 745 mmHg 65%
    23:00 +10°C° 0 mm 2 mps 745 mmHg 66%

    24 September, Monday

    Time Temperature Precipitation Wind Pressure Humidity
    00:00 +10°C° 0.2 mm 2 mps 744 mmHg 69%
    01:00 +10°C° 0.2 mm 2 mps 743 mmHg 71%
    02:00 +10°C° 0.2 mm 2 mps 742 mmHg 73%
    03:00 +9°C° 2.3 mm 3 mps 740 mmHg 80%
    04:00 +9°C° 2.3 mm 3 mps 739 mmHg 86%
    05:00 +8°C° 2.3 mm 4 mps 738 mmHg 93%
    06:00 +8°C° 2.3 mm 5 mps 736 mmHg 93%
    07:00 +8°C° 2.3 mm 6 mps 735 mmHg 92%
    08:00 +8°C° 2.3 mm 7 mps 733 mmHg 92%
    09:00 +6°C° 3.8 mm 8 mps 734 mmHg 91%
    10:00 +6°C° 3.8 mm 9 mps 734 mmHg 90%
    11:00 +6°C° 3.8 mm 11 mps 734 mmHg 88%
    12:00 +7°C° 0.8 mm 10 mps 736 mmHg 85%
    13:00 +8°C° 0.8 mm 9 mps 737 mmHg 82%
    14:00 +8°C° 0.8 mm 9 mps 739 mmHg 79%
    15:00 +9°C° 0.4 mm 8 mps 740 mmHg 78%
    16:00 +10°C° 0.4 mm 7 mps 741 mmHg 76%
    17:00 +10°C° 0.4 mm 7 mps 742 mmHg 75%
    18:00 +9°C° 0.1 mm 7 mps 743 mmHg 78%
    19:00 +8°C° 0.1 mm 7 mps 744 mmHg 80%
    20:00 +6°C° 0.1 mm 7 mps 744 mmHg 83%
    21:00 +6°C° 0.4 mm 7 mps 745 mmHg 84%
    22:00 +6°C° 0.4 mm 7 mps 746 mmHg 85%
    23:00 +6°C° 0.4 mm 7 mps 746 mmHg 86%

    25 September, Tuesday

    Time Temperature Precipitation Wind Pressure Humidity
    00:00 +5°C° 0.3 mm 7 mps 747 mmHg 85%
    01:00 +5°C° 0.3 mm 7 mps 748 mmHg 84%
    02:00 +4°C° 0.3 mm 7 mps 749 mmHg 83%
    03:00 +4°C° 0 mm 6 mps 749 mmHg 84%
    04:00 +4°C° 0 mm 6 mps 750 mmHg 85%
    05:00 +3°C° 0 mm 6 mps 751 mmHg 87%
    06:00 +4°C° 0 mm 6 mps 751 mmHg 84%
    07:00 +4°C° 0 mm 6 mps 752 mmHg 81%
    08:00 +5°C° 0 mm 7 mps 752 mmHg 78%
    09:00 +6°C° 0.1 mm 7 mps 753 mmHg 72%
    10:00 +8°C° 0.1 mm 7 mps 753 mmHg 66%
    11:00 +9°C° 0.1 mm 8 mps 754 mmHg 60%
    12:00 +9°C° 0.2 mm 8 mps 754 mmHg 57%
    13:00 +10°C° 0.2 mm 8 mps 754 mmHg 54%
    14:00 +10°C° 0.2 mm 8 mps 754 mmHg 51%
    15:00 +10°C° 0.1 mm 7 mps 754 mmHg 51%
    16:00 +10°C° 0.1 mm 6 mps 755 mmHg 51%
    17:00 +10°C° 0.1 mm 6 mps 755 mmHg 51%
    18:00 +8°C° 0 mm 5 mps 755 mmHg 54%
    19:00 +7°C° 0 mm 4 mps 756 mmHg 57%
    20:00 +6°C° 0 mm 4 mps 756 mmHg 60%
    21:00 +6°C° 0 mm 4 mps 756 mmHg 62%
    22:00 +7°C° 0 mm 4 mps 756 mmHg 64%
    23:00 +7°C° 0 mm 4 mps 756 mmHg 66%

    26 September, Wednesday

    Time Temperature Precipitation Wind Pressure Humidity
    00:00 +7°C° 0.1 mm 5 mps 755 mmHg 71%
    01:00 +7°C° 0.1 mm 6 mps 755 mmHg 76%
    02:00 +8°C° 0.1 mm 7 mps 755 mmHg 80%
    03:00 +8°C° 0.1 mm 7 mps 754 mmHg 82%
    04:00 +8°C° 0.1 mm 7 mps 754 mmHg 83%
    05:00 +8°C° 0.1 mm 7 mps 753 mmHg 84%
    06:00 +7°C° 0.3 mm 8 mps 753 mmHg 85%
    07:00 +7°C° 0.3 mm 8 mps 753 mmHg 86%
    08:00 +7°C° 0.3 mm 8 mps 753 mmHg 86%
    09:00 +7°C° 0.3 mm 8 mps 753 mmHg 85%
    10:00 +9°C° 0.3 mm 8 mps 753 mmHg 84%
    11:00 +8°C° 0.3 mm 9 mps 753 mmHg 83%
    12:00 +9°C° 0.2 mm 8 mps 753 mmHg 81%
    13:00 +10°C° 0.2 mm 8 mps 753 mmHg 78%
    14:00 +10°C° 0.2 mm 8 mps 753 mmHg 76%
    15:00 +10°C° 0.2 mm 7 mps 753 mmHg 77%
    16:00 +10°C° 0.2 mm 7 mps 753 mmHg 79%
    17:00 +10°C° 0.2 mm 6 mps 753 mmHg 80%
    18:00 +10°C° 0.1 mm 6 mps 753 mmHg 81%
    19:00 +10°C° 0.1 mm 5 mps 753 mmHg 82%
    20:00 +9°C° 0.1 mm 5 mps 753 mmHg 83%
    21:00 +10°C° 0 mm 4 mps 753 mmHg 82%
    22:00 +10°C° 0 mm 4 mps 753 mmHg 82%
    23:00 +10°C° 0 mm 4 mps 753 mmHg 81%
    Show more